Location: Kalberh�ni
(46.4610°N, 7.2453°E)
Time: 02:21:54
(UTC+00:00)

Cosmos 1703 - Pass Details

Date: 20 June 2021
Orbit: 522 x 539 km, 82.5° (Epoch: 25 July)

Event Time Altitude Azimuth Distance (km) Brightness Sun altitude
Exits shadow 22:08:56 32° 118° (ESE) 946 4.1 -17.6°
Maximum altitude 22:09:43 35° 92° (E) 883 4.1 -17.6°
Drops below altitude 10° 22:13:21 10° 26° (NNE) 1,808 6.6 -17.8°
Sets 22:15:38 0° 18° (NNE) 2,706 7.7 -17.9°
